Time,TemperatureF,DewpointF,PressureIn,WindDirection,WindDirectionDegrees,WindSpeedMPH,WindSpeedGustMPH,Humidity,HourlyPrecipIn,Conditions,Clouds,dailyrainin,SoftwareType,DateUTC
2013-03-31 00:03:00,46.0,-99.9,30.06,NNE,27,0.0,0.0,61,-99.99,,,-99.99,,2013-03-31 04:03:00,
2013-03-31 00:13:00,46.0,33.0,30.06,NNE,27,0.0,0.0,61,-99.99,,,-99.99,,2013-03-31 04:13:00,
2013-03-31 00:23:00,46.0,34.0,30.06,NNE,27,0.0,0.0,63,-99.99,,,-99.99,,2013-03-31 04:23:00,
2013-03-31 00:33:00,45.0,33.0,30.05,NNE,27,0.0,0.0,63,-99.99,,,-99.99,,2013-03-31 04:33:00,
2013-03-31 00:42:00,45.0,33.0,30.05,NNE,27,0.0,0.0,63,-99.99,,,-99.99,,2013-03-31 04:42:00,
2013-03-31 00:53:00,44.0,33.0,30.05,NNE,27,0.0,0.0,64,-99.99,,,-99.99,,2013-03-31 04:53:00,
2013-03-31 01:02:00,45.0,34.0,30.05,NNE,27,0.0,0.0,64,-99.99,,,-99.99,,2013-03-31 05:02:00,
2013-03-31 01:13:00,45.0,34.0,30.05,NNE,27,0.0,0.0,64,-99.99,,,-99.99,,2013-03-31 05:13:00,
2013-03-31 01:22:00,44.0,33.0,30.04,NNE,27,0.0,0.0,64,-99.99,,,-99.99,,2013-03-31 05:22:00,
2013-03-31 01:32:00,44.0,33.0,30.04,NNE,27,0.0,0.0,64,-99.99,,,-99.99,,2013-03-31 05:32:00,
2013-03-31 01:42:00,44.0,33.0,30.04,NNE,27,0.0,0.0,64,-99.99,,,-99.99,,2013-03-31 05:42:00,
2013-03-31 01:53:00,44.0,33.0,30.03,NNE,27,0.0,0.0,66,-99.99,,,-99.99,,2013-03-31 05:53:00,
2013-03-31 02:02:00,44.0,33.0,30.02,NNE,28,0.0,0.0,66,-99.99,,,-99.99,,2013-03-31 06:02:00,
2013-03-31 02:12:00,44.0,33.0,30.02,NNE,28,0.0,0.0,66,-99.99,,,-99.99,,2013-03-31 06:12:00,
2013-03-31 02:22:00,44.0,34.0,30.01,NNE,27,0.0,0.0,67,-99.99,,,-99.99,,2013-03-31 06:22:00,
2013-03-31 02:32:00,44.0,34.0,30.01,NNE,28,0.0,0.0,68,-99.99,,,-99.99,,2013-03-31 06:32:00,
2013-03-31 02:42:00,44.0,34.0,30.01,NNE,28,0.0,0.0,68,-99.99,,,-99.99,,2013-03-31 06:42:00,
2013-03-31 02:52:00,44.0,34.0,30.01,NNE,27,0.0,0.0,67,-99.99,,,-99.99,,2013-03-31 06:52:00,
2013-03-31 03:02:00,44.0,34.0,30.00,NNE,27,0.0,0.0,67,-99.99,,,-99.99,,2013-03-31 07:02:00,
2013-03-31 03:12:00,44.0,34.0,30.00,NNE,27,0.0,0.0,67,-99.99,,,-99.99,,2013-03-31 07:12:00,
2013-03-31 03:22:00,44.0,35.0,29.99,NNE,28,0.0,0.0,70,-99.99,,,-99.99,,2013-03-31 07:22:00,
2013-03-31 03:33:00,44.0,35.0,29.99,NNE,28,0.0,0.0,70,-99.99,,,-99.99,,2013-03-31 07:33:00,
2013-03-31 03:43:00,44.0,35.0,29.99,NNE,28,0.0,0.0,70,-99.99,,,-99.99,,2013-03-31 07:43:00,
2013-03-31 03:53:00,43.0,35.0,29.98,NNE,27,0.0,0.0,72,-99.99,,,-99.99,,2013-03-31 07:53:00,
2013-03-31 04:02:00,43.0,35.0,29.98,NNE,27,0.0,0.0,72,-99.99,,,-99.99,,2013-03-31 08:02:00,
2013-03-31 04:12:00,43.0,35.0,29.98,NNE,27,0.0,0.0,72,-99.99,,,-99.99,,2013-03-31 08:12:00,
2013-03-31 04:22:00,43.0,35.0,29.98,NNE,27,0.0,0.0,72,-99.99,,,-99.99,,2013-03-31 08:22:00,
2013-03-31 04:32:00,43.0,34.0,29.97,NNE,27,0.0,0.0,71,-99.99,,,-99.99,,2013-03-31 08:32:00,
2013-03-31 04:42:00,43.0,34.0,29.97,NNE,27,0.0,0.0,71,-99.99,,,-99.99,,2013-03-31 08:42:00,
2013-03-31 04:52:00,43.0,34.0,29.97,NNE,27,0.0,0.0,71,-99.99,,,-99.99,,2013-03-31 08:52:00,
2013-03-31 05:02:00,43.0,34.0,29.97,NNE,27,0.0,0.0,71,-99.99,,,-99.99,,2013-03-31 09:02:00,
2013-03-31 05:12:00,43.0,34.0,29.97,NNE,27,0.0,0.0,71,-99.99,,,-99.99,,2013-03-31 09:12:00,
2013-03-31 05:22:00,44.0,35.0,29.96,NNE,27,0.0,0.0,70,-99.99,,,-99.99,,2013-03-31 09:22:00,
2013-03-31 05:33:00,44.0,36.0,29.96,NE,39,0.0,0.0,72,-99.99,,,-99.99,,2013-03-31 09:33:00,
2013-03-31 05:43:00,44.0,36.0,29.96,NE,39,0.0,0.0,72,-99.99,,,-99.99,,2013-03-31 09:43:00,
2013-03-31 05:53:00,43.0,37.0,29.96,NE,41,1.0,0.0,79,-99.99,,,-99.99,,2013-03-31 09:53:00,
2013-03-31 06:03:00,42.0,37.0,29.96,NE,41,0.0,0.0,83,-99.99,,,-99.99,,2013-03-31 10:03:00,
2013-03-31 06:13:00,42.0,37.0,29.96,NE,41,0.0,0.0,83,-99.99,,,-99.99,,2013-03-31 10:13:00,
2013-03-31 06:24:00,42.0,39.0,29.95,NE,41,0.0,0.0,88,-99.99,,,-99.99,,2013-03-31 10:24:00,
2013-03-31 06:33:00,42.0,39.0,29.95,NE,41,0.0,0.0,89,-99.99,,,-99.99,,2013-03-31 10:33:00,
2013-03-31 06:42:00,42.0,39.0,29.95,NE,41,0.0,0.0,89,-99.99,,,-99.99,,2013-03-31 10:42:00,
2013-03-31 06:53:00,42.0,40.0,29.95,NE,41,0.0,0.0,92,-99.99,,,-99.99,,2013-03-31 10:53:00,
2013-03-31 07:02:00,42.0,40.0,29.95,NE,41,0.0,0.0,92,-99.99,,,-99.99,,2013-03-31 11:02:00,
2013-03-31 07:12:00,42.0,40.0,29.95,NE,41,0.0,0.0,92,-99.99,,,-99.99,,2013-03-31 11:12:00,
2013-03-31 07:23:00,41.0,39.0,29.95,NE,41,0.0,0.0,92,-99.99,,,-99.99,,2013-03-31 11:23:00,
2013-03-31 07:32:00,41.0,39.0,29.95,NE,41,0.0,0.0,92,-99.99,,,-99.99,,2013-03-31 11:32:00,
2013-03-31 07:42:00,41.0,39.0,29.95,NE,41,0.0,0.0,92,-99.99,,,-99.99,,2013-03-31 11:42:00,
2013-03-31 07:52:00,41.0,39.0,29.93,NE,42,0.0,0.0,94,-99.99,,,-99.99,,2013-03-31 11:52:00,
2013-03-31 08:03:00,41.0,39.0,29.93,NE,42,0.0,0.0,94,-99.99,,,-99.99,,2013-03-31 12:03:00,
2013-03-31 08:12:00,41.0,39.0,29.93,NE,42,0.0,0.0,94,-99.99,,,-99.99,,2013-03-31 12:12:00,
2013-03-31 08:22:00,42.0,41.0,29.92,NE,41,0.0,0.0,95,-99.99,,,-99.99,,2013-03-31 12:22:00,
2013-03-31 08:33:00,42.0,41.0,29.92,NE,43,0.0,0.0,95,-99.99,,,-99.99,,2013-03-31 12:33:00,
2013-03-31 08:42:00,42.0,41.0,29.92,NE,43,0.0,0.0,95,-99.99,,,-99.99,,2013-03-31 12:42:00,
2013-03-31 08:53:00,42.0,41.0,29.92,NE,41,0.0,0.0,95,-99.99,,,-99.99,,2013-03-31 12:53:00,
2013-03-31 09:02:00,42.0,41.0,29.92,NE,43,1.0,0.0,95,-99.99,,,-99.99,,2013-03-31 13:02:00,
2013-03-31 09:12:00,42.0,41.0,29.92,NE,43,1.0,0.0,95,-99.99,,,-99.99,,2013-03-31 13:12:00,
2013-03-31 09:22:00,43.0,42.0,29.91,NE,46,0.0,0.0,96,-99.99,,,-99.99,,2013-03-31 13:22:00,
2013-03-31 09:32:00,43.0,42.0,29.91,NE,46,0.0,0.0,96,-99.99,,,-99.99,,2013-03-31 13:32:00,
2013-03-31 09:42:00,43.0,42.0,29.91,NE,46,0.0,0.0,96,-99.99,,,-99.99,,2013-03-31 13:42:00,
2013-03-31 09:53:00,43.0,42.0,29.90,NE,46,0.0,0.0,96,-99.99,,,-99.99,,2013-03-31 13:53:00,
2013-03-31 10:02:00,43.0,42.0,29.90,NE,46,0.0,0.0,96,-99.99,,,-99.99,,2013-03-31 14:02:00,
2013-03-31 10:12:00,43.0,42.0,29.90,NE,46,0.0,0.0,96,-99.99,,,-99.99,,2013-03-31 14:12:00,
2013-03-31 10:22:00,43.0,42.0,29.90,NE,46,0.0,0.0,96,-99.99,,,-99.99,,2013-03-31 14:22:00,
2013-03-31 10:33:00,44.0,43.0,29.88,NE,45,0.0,0.0,96,-99.99,,,-99.99,,2013-03-31 14:33:00,
2013-03-31 10:43:00,44.0,43.0,29.88,NE,45,0.0,0.0,96,-99.99,,,-99.99,,2013-03-31 14:43:00,
2013-03-31 10:53:00,44.0,43.0,29.88,NE,45,0.0,0.0,96,-99.99,,,-99.99,,2013-03-31 14:53:00,
2013-03-31 11:03:00,44.0,43.0,29.88,NE,45,0.0,0.0,96,-99.99,,,-99.99,,2013-03-31 15:03:00,
2013-03-31 11:13:00,44.0,43.0,29.88,NE,45,0.0,0.0,96,-99.99,,,-99.99,,2013-03-31 15:13:00,
2013-03-31 11:23:00,45.0,44.0,29.88,NE,45,0.0,0.0,96,-99.99,,,-99.99,,2013-03-31 15:23:00,
2013-03-31 11:33:00,45.0,44.0,29.87,NE,45,0.0,0.0,96,-99.99,,,-99.99,,2013-03-31 15:33:00,
2013-03-31 11:43:00,45.0,44.0,29.87,NE,45,0.0,0.0,96,-99.99,,,-99.99,,2013-03-31 15:43:00,
2013-03-31 11:53:00,46.0,45.0,29.87,NE,45,0.0,0.0,96,-99.99,,,-99.99,,2013-03-31 15:53:00,
2013-03-31 12:03:00,46.0,45.0,29.87,NE,45,0.0,0.0,95,-99.99,,,-99.99,,2013-03-31 16:03:00,
2013-03-31 12:13:00,46.0,45.0,29.87,NE,45,0.0,0.0,95,-99.99,,,-99.99,,2013-03-31 16:13:00,
2013-03-31 12:23:00,46.0,45.0,29.86,NE,45,0.0,0.0,95,-99.99,,,-99.99,,2013-03-31 16:23:00,
2013-03-31 12:33:00,46.0,45.0,29.85,NE,45,0.0,0.0,96,-99.99,,,-99.99,,2013-03-31 16:33:00,
2013-03-31 12:43:00,46.0,45.0,29.85,NE,45,0.0,0.0,96,-99.99,,,-99.99,,2013-03-31 16:43:00,
2013-03-31 12:53:00,47.0,46.0,29.85,NE,45,0.0,0.0,95,-99.99,,,-99.99,,2013-03-31 16:53:00,
2013-03-31 13:03:00,47.0,46.0,29.85,NE,45,0.0,0.0,95,-99.99,,,-99.99,,2013-03-31 17:03:00,
2013-03-31 13:13:00,47.0,46.0,29.85,NE,45,0.0,0.0,95,-99.99,,,-99.99,,2013-03-31 17:13:00,
2013-03-31 13:23:00,48.0,47.0,29.83,NE,45,0.0,0.0,95,-99.99,,,-99.99,,2013-03-31 17:23:00,
2013-03-31 13:32:00,48.0,46.0,29.83,NE,45,0.0,0.0,94,-99.99,,,-99.99,,2013-03-31 17:32:00,
2013-03-31 13:43:00,48.0,46.0,29.83,NE,45,0.0,0.0,94,-99.99,,,-99.99,,2013-03-31 17:43:00,
2013-03-31 13:52:00,48.0,46.0,29.82,NE,45,1.0,0.0,94,-99.99,,,-99.99,,2013-03-31 17:52:00,
2013-03-31 14:03:00,48.0,46.0,29.82,NE,45,1.0,0.0,94,-99.99,,,-99.99,,2013-03-31 18:03:00,
2013-03-31 14:13:00,48.0,46.0,29.82,NE,45,1.0,0.0,94,-99.99,,,-99.99,,2013-03-31 18:13:00,
2013-03-31 14:22:00,50.0,47.0,29.81,SE,145,1.0,0.0,90,-99.99,,,-99.99,,2013-03-31 18:22:00,
2013-03-31 14:33:00,50.0,47.0,29.81,SE,145,1.0,0.0,90,-99.99,,,-99.99,,2013-03-31 18:33:00,
2013-03-31 14:43:00,50.0,47.0,29.81,SE,145,1.0,0.0,90,-99.99,,,-99.99,,2013-03-31 18:43:00,
2013-03-31 14:53:00,51.0,48.0,29.80,South,170,0.0,0.0,89,-99.99,,,-99.99,,2013-03-31 18:53:00,
2013-03-31 15:03:00,52.0,49.0,29.80,South,177,0.0,0.0,88,-99.99,,,-99.99,,2013-03-31 19:03:00,
2013-03-31 15:13:00,52.0,49.0,29.80,South,177,0.0,0.0,88,-99.99,,,-99.99,,2013-03-31 19:13:00,
2013-03-31 15:22:00,52.0,49.0,29.80,South,177,0.0,0.0,89,-99.99,,,-99.99,,2013-03-31 19:22:00,
2013-03-31 15:33:00,52.0,49.0,29.80,South,169,0.0,0.0,89,-99.99,,,-99.99,,2013-03-31 19:33:00,
2013-03-31 15:43:00,52.0,49.0,29.80,South,169,0.0,0.0,89,-99.99,,,-99.99,,2013-03-31 19:43:00,
2013-03-31 15:53:00,52.0,49.0,29.80,South,169,0.0,0.0,89,-99.99,,,-99.99,,2013-03-31 19:53:00,
2013-03-31 16:03:00,54.0,50.0,29.80,ENE,60,0.0,0.0,87,-99.99,,,-99.99,,2013-03-31 20:03:00,
2013-03-31 16:13:00,54.0,50.0,29.80,ENE,60,0.0,0.0,87,-99.99,,,-99.99,,2013-03-31 20:13:00,
2013-03-31 16:23:00,55.0,51.0,29.79,ENE,60,1.0,0.0,85,-99.99,,,-99.99,,2013-03-31 20:23:00,
2013-03-31 16:34:00,56.0,51.0,29.79,South,169,0.0,0.0,84,-99.99,,,-99.99,,2013-03-31 20:34:00,
2013-03-31 16:43:00,56.0,51.0,29.79,South,169,0.0,0.0,84,-99.99,,,-99.99,,2013-03-31 20:43:00,
2013-03-31 16:53:00,57.0,52.0,29.78,SSW,210,0.0,0.0,82,-99.99,,,-99.99,,2013-03-31 20:53:00,
2013-03-31 17:03:00,58.0,52.0,29.78,SSW,209,0.0,0.0,80,-99.99,,,-99.99,,2013-03-31 21:03:00,
2013-03-31 17:13:00,58.0,52.0,29.78,SSW,209,0.0,0.0,80,-99.99,,,-99.99,,2013-03-31 21:13:00,
2013-03-31 17:22:00,60.0,50.0,29.78,NNE,32,6.0,0.0,70,-99.99,,,-99.99,,2013-03-31 21:22:00,
2013-03-31 17:34:00,61.0,51.0,29.78,SE,124,4.0,0.0,69,-99.99,,,-99.99,,2013-03-31 21:34:00,
2013-03-31 17:43:00,61.0,51.0,29.78,SE,124,4.0,0.0,69,-99.99,,,-99.99,,2013-03-31 21:43:00,
2013-03-31 17:54:00,60.0,49.0,29.77,North,350,4.0,0.0,68,-99.99,,,-99.99,,2013-03-31 21:54:00,
2013-03-31 18:04:00,60.0,49.0,29.77,North,350,4.0,0.0,68,-99.99,,,-99.99,,2013-03-31 22:04:00,
2013-03-31 18:13:00,60.0,49.0,29.77,North,350,4.0,0.0,68,-99.99,,,-99.99,,2013-03-31 22:13:00,
2013-03-31 18:24:00,60.0,49.0,29.76,ESE,113,1.0,0.0,67,-99.99,,,-99.99,,2013-03-31 22:24:00,
2013-03-31 18:33:00,60.0,49.0,29.78,ESE,105,2.0,0.0,66,-99.99,,,-99.99,,2013-03-31 22:33:00,
2013-03-31 18:43:00,60.0,49.0,29.78,ESE,105,2.0,0.0,66,-99.99,,,-99.99,,2013-03-31 22:43:00,
2013-03-31 18:53:00,60.0,49.0,29.76,NNE,32,2.0,0.0,66,-99.99,,,-99.99,,2013-03-31 22:53:00,
2013-03-31 19:03:00,59.0,48.0,29.75,ESE,118,3.0,0.0,66,-99.99,,,-99.99,,2013-03-31 23:03:00,
2013-03-31 19:13:00,59.0,48.0,29.75,ESE,118,3.0,0.0,66,-99.99,,,-99.99,,2013-03-31 23:13:00,
2013-03-31 19:22:00,59.0,48.0,29.75,ESE,105,0.0,0.0,68,-99.99,,,-99.99,,2013-03-31 23:22:00,
2013-03-31 19:32:00,59.0,48.0,29.76,East,79,0.0,0.0,68,-99.99,,,-99.99,,2013-03-31 23:32:00,
2013-03-31 19:43:00,59.0,48.0,29.76,East,79,0.0,0.0,68,-99.99,,,-99.99,,2013-03-31 23:43:00,
2013-03-31 19:53:00,58.0,46.0,29.76,SE,128,1.0,0.0,64,-99.99,,,-99.99,,2013-03-31 23:53:00,
2013-03-31 20:02:00,58.0,45.0,29.76,ENE,75,1.0,0.0,63,-99.99,,,-99.99,,2013-04-01 00:02:00,
2013-03-31 20:13:00,58.0,45.0,29.76,ENE,75,1.0,0.0,63,-99.99,,,-99.99,,2013-04-01 00:13:00,
2013-03-31 20:22:00,58.0,45.0,29.77,ESE,102,3.0,0.0,62,-99.99,,,-99.99,,2013-04-01 00:22:00,
2013-03-31 20:32:00,58.0,45.0,29.77,East,94,1.0,0.0,63,-99.99,,,-99.99,,2013-04-01 00:32:00,
2013-03-31 20:43:00,58.0,45.0,29.77,East,94,1.0,0.0,63,-99.99,,,-99.99,,2013-04-01 00:43:00,
2013-03-31 20:53:00,57.0,45.0,29.78,ENE,75,1.0,0.0,65,-99.99,,,-99.99,,2013-04-01 00:53:00,
2013-03-31 21:03:00,56.0,45.0,29.78,East,101,1.0,0.0,66,-99.99,,,-99.99,,2013-04-01 01:03:00,
2013-03-31 21:23:00,56.0,46.0,29.79,ENE,75,1.0,0.0,69,-99.99,,,-99.99,,2013-04-01 01:23:00,
2013-03-31 21:32:00,55.0,45.0,29.79,ESE,119,0.0,0.0,70,-99.99,,,-99.99,,2013-04-01 01:32:00,
2013-03-31 21:42:00,55.0,45.0,29.79,ESE,119,0.0,0.0,70,-99.99,,,-99.99,,2013-04-01 01:42:00,
2013-03-31 21:53:00,55.0,45.0,29.79,ENE,63,0.0,0.0,70,-99.99,,,-99.99,,2013-04-01 01:53:00,
2013-03-31 22:03:00,54.0,45.0,29.80,ENE,62,1.0,0.0,71,-99.99,,,-99.99,,2013-04-01 02:03:00,
2013-03-31 22:13:00,54.0,45.0,29.80,ENE,62,1.0,0.0,71,-99.99,,,-99.99,,2013-04-01 02:13:00,
2013-03-31 22:23:00,54.0,45.0,29.80,SE,140,0.0,0.0,71,-99.99,,,-99.99,,2013-04-01 02:23:00,
2013-03-31 22:33:00,53.0,45.0,29.80,SE,139,0.0,0.0,74,-99.99,,,-99.99,,2013-04-01 02:33:00,
2013-03-31 22:42:00,53.0,45.0,29.80,SE,139,0.0,0.0,74,-99.99,,,-99.99,,2013-04-01 02:42:00,
2013-03-31 22:52:00,51.0,44.0,29.80,SE,140,0.0,0.0,78,-99.99,,,-99.99,,2013-04-01 02:52:00,
2013-03-31 23:03:00,50.0,43.0,29.81,SE,139,0.0,0.0,78,-99.99,,,-99.99,,2013-04-01 03:03:00,
2013-03-31 23:12:00,50.0,43.0,29.81,SE,139,0.0,0.0,78,-99.99,,,-99.99,,2013-04-01 03:12:00,
2013-03-31 23:23:00,50.0,44.0,29.81,SE,139,0.0,0.0,81,-99.99,,,-99.99,,2013-04-01 03:23:00,
2013-03-31 23:34:00,51.0,45.0,29.82,NE,56,0.0,0.0,79,-99.99,,,-99.99,,2013-04-01 03:34:00,
2013-03-31 23:43:00,51.0,45.0,29.82,NE,56,0.0,0.0,79,-99.99,,,-99.99,,2013-04-01 03:43:00,
2013-03-31 23:53:00,54.0,44.0,29.82,ESE,110,1.0,0.0,69,-99.99,,,-99.99,,2013-04-01 03:53:00,